Location: Hermaringen
(48.5952°N, 10.2585°E)
Time: 05:16:17
(UTC+00:00)

Transit 2A - Pass Details

Date: 17 February 2026
Orbit: 590 x 954 km, 66.7° (Epoch: 14 March)

Event Time Altitude Azimuth Distance (km) Brightness Sun altitude
Rises 20:47:47 0° 323° (NW) 3,588 10.3 -39.7°
Reaches altitude 10° 20:50:25 10° 321° (NW) 2,608 9.4 -40.1°
Enters shadow 20:52:59 26° 315° (NW) 1,698 8.2 -40.5°
